Regional Weather Roundup
Issued by NWS Charleston, WV

Home | Current Version | Previous Version | Text Only | Print | Product List | Glossary Off
Versions: 1 2 3 4 5 6 7 8 9 10 11 12 13 14 15 16 17 18 19 20 21 22 23 24 25 26 27 28

000
ASUS41 KRLX 180710
RWRRLX
West Virginia Regional Weather Roundup
National Weather Service Charleston WV
300 AM EDT FRI AUG 18 2017

Note: "fair" indicates few or no clouds below 12,000 feet with no
significant weather and/or obstructions to visibility.

WVZ003-180800-
Northern Panhandle of West Virginia

CITY           SKY/WX    TMP DP  RH WIND       PRES   REMARKS
WHEELING       CLOUDY    71  69  93 S8        29.86F
$$

WVZ009-180800-
Northwest West Virginia

CITY           SKY/WX    TMP DP  RH WIND       PRES   REMARKS
PARKERSBURG    MOCLDY    73  71  93 CALM      29.90F
$$

WVZ006-180800-
Western West Virginia

CITY           SKY/WX    TMP DP  RH WIND       PRES   REMARKS
HUNTINGTON     CLOUDY    76  72  87 CALM      29.87F
$$

WVZ015-180800-
West Central West Virginia

CITY           SKY/WX    TMP DP  RH WIND       PRES   REMARKS
CHARLESTON     PTCLDY    76  71  85 S3        29.89F
$$

WVZ022-031-180800-
North Central West Virginia

CITY           SKY/WX    TMP DP  RH WIND       PRES   REMARKS
CLARKSBURG     PTCLDY    72  70  93 CALM      29.90S FOG
MORGANTOWN     CLOUDY    72  70  93 SE3       29.91F
$$

WVZ025-035-042-045-180800-
Southern West Virginia

CITY           SKY/WX    TMP DP  RH WIND       PRES   REMARKS
BECKLEY        PTCLDY    71  67  87 S7        30.01F
LOGAN            N/A     73  72  94 S3        29.94F
BLUEFIELD      CLEAR     69  65  86 W7        30.04F
LEWISBURG      FOG       65  64  99 CALM      30.01S VSB 1/4
$$

WVZ047-180800-
Northern Mountains of West Virginia

CITY           SKY/WX    TMP DP  RH WIND       PRES   REMARKS
ELKINS         PTCLDY    67  64  90 CALM      29.97S FOG
$$

WVZ052-180800-
Eastern Panhandle of West Virginia

CITY           SKY/WX    TMP DP  RH WIND       PRES   REMARKS
MARTINSBURG    MOCLDY    74  72  93 S5        29.87F
PETERSBURG     CLEAR     71  71  98 NW3       29.90F FOG
$$




USA.gov is the U.S. government's official web portal to all federal, state and local government web resources and services.